Simultaneous Nadir Overpasses (SNOs) Predictions

Prediction of SNOs between GOES-15 and NOAA-20 Satellite Orbit:

Table of predicted SNOs for the next 14.0 days since TLE Epoch: 5/31/2019
Index Date Time (GOES-15) GOES-15 Lat,Lon NOAA-20 Lat,Lon Distance(km) Time Diff (sec)
1 05/31/2019 21:46:19 -0.02,-128.45 0.70,-125.12 379.01 80
2 06/02/2019 10:05:26 0.00,-128.43 0.47,-130.39 223.69 80
3 06/03/2019 09:49:22 0.01,-128.43 -0.58,-125.87 292.09 80
4 06/04/2019 22:08:37 0.01,-128.42 -0.63,-131.16 313.68 80
5 06/05/2019 21:52:32 -0.00,-128.41 0.41,-126.64 201.92 80
6 06/07/2019 10:11:40 -0.02,-128.38 0.76,-131.91 401.66 80
7 06/08/2019 09:55:34 -0.01,-128.37 -0.23,-127.37 113.39 80
8 06/09/2019 22:14:50 0.02,-128.34 -0.97,-132.67 493.73 80
9 06/10/2019 21:58:45 0.01,-128.33 0.07,-128.15 21.56 80
10 06/13/2019 09:59:07 -0.02,-128.29 0.11,-128.88 67.42 80
11 06/14/2019 09:43:01 -0.02,-128.27 -0.87,-124.34 447.16 80




NCC Satellite Simultaneous Nadir Overpasses (SNOs) Prediction Service
